Skip Page Navigation
NASA JPL Caltech
NASA Logo - Jet Propulsion Laboratory + View the NASA Portal
+ Center for Near-Earth Object Studies
JPL Home Earth Solar System Stars & Galaxies Technology
JPL Solar System Dynamics
BODIES ORBITS EPHEMERIDES TOOLS PHYSICAL DATA DISCOVERY FAQ SITE MAP
JPL Small-Body Database Browser
Search: [ help ]  
413037 (2001 KN51)
Classification: Main-belt Asteroid          SPK-ID: 2413037
Ephemeris | Orbit Diagram | Orbital Elements | Mission Design | Physical Parameters | Discovery Circumstances | Close-Approach Data ]

[ show orbit diagram ]
Orbital Elements at Epoch 2459000.5 (2020-May-31.0) TDB
Reference: JPL 13 (heliocentric ecliptic J2000)
 Element Value Uncertainty (1-sigma)   Units 
e .2792500558254976 9.7588e-08  
a 3.062110607324639 2.4751e-08 au
q 2.207016049285385 3.0119e-07 au
i 24.39189730498573 1.1172e-05 deg
node 93.71834035011993 1.6037e-05 deg
peri 132.939588880112 2.4963e-05 deg
M 210.2901393928851 1.3089e-05 deg
tp 2459814.412358652501
(2022-Aug-22.91235865)
7.3323e-05 TDB
period 1957.175351888446
5.36
2.373e-05
6.497e-08
d
yr
n .1839385518791875 2.2301e-09 deg/d
Q 3.917205165363892 3.1662e-08 au
  Orbit Determination Parameters
   # obs. used (total)      194  
   data-arc span      5922 days (16.21 yr)  
   first obs. used      2001-05-25  
   last obs. used      2017-08-11  
   planetary ephem.      DE431  
   SB-pert. ephem.      SB431-N16  
   condition code      0  
   norm. resid. RMS      .62009  
   source      ORB  
   producer      Otto Matic  
   solution date      2019-Jul-13 14:47:18  

Additional Information
 Earth MOID = 1.2545 au 
 Jupiter MOID = 1.44086 au 
 T_jup = 3.041 
[ show covariance matrix ]

Ephemeris | Orbit Diagram | Orbital Elements | Mission Design | Physical Parameters | Discovery Circumstances | Close-Approach Data ]

Physical Parameter Table
Parameter Symbol Value Units Sigma Reference Notes
absolute magnitude H 15.7   n/a MPO419031  

413037 (2001 KN51)          Discovered 2001-May-25 by LINEAR at Socorro
Reference: Last Updated: 2014-11-10

[ show close-approach data ]
Alternate Designations
 2001 KN51 = 2006 FK46 
Ephemeris | Orbit Diagram | Orbital Elements | Mission Design | Physical Parameters | Discovery Circumstances | Close-Approach Data ]
ABOUT SSD CREDITS/AWARDS PRIVACY/COPYRIGHT GLOSSARY LINKS
FirstGov 2020-Jul-02 20:40 UT
(server date/time)  
NASA Home Page
Site Manager:   Ryan S. Park
Webmaster  Alan B. Chamberlin